Simultaneous Nadir Overpasses (SNOs) Predictions

Prediction of SNOs between AQUA and LANDSAT-8 Satellite Orbit:

Table of predicted SNOs for the next 14.0 days since TLE Epoch: 11/16/2024
Index Date (AQUA) Time (AQUA) Lat,Lon (AQUA) SZA (AQUA ) Date (LANDSAT-8) Time (LANDSAT-8) Lat,Lon (LANDSAT-8) SZA (LANDSAT-8 ) Distance(km) Time Diff (sec)
1 11/19/2024 20:46:37 -73.72, 54.04 86.46 11/19/2024 20:45:32 -73.71, 51.14 86.58 90.29 65
2 11/19/2024 21:36:01 73.90,-138.71 93.72 11/19/2024 21:34:54 73.89,-140.83 93.62 65.49 67
3 11/19/2024 22:25:27 -74.24, 28.17 85.97 11/19/2024 22:24:15 -74.24, 27.60 86.00 17.09 72
4 11/19/2024 23:14:50 74.37,-164.48 94.17 11/19/2024 23:13:38 74.36,-164.46 94.14 1.56 72
5 11/20/2024 00:04:09 -74.35, 3.24 85.85 11/20/2024 00:03:06 -74.35, 3.14 85.87 2.95 63
6 11/20/2024 00:53:30 74.38, 170.84 94.19 11/20/2024 00:52:31 74.37, 170.84 94.17 1.29 59
7 11/20/2024 01:42:49 -74.36, -21.44 85.83 11/20/2024 01:41:59 -74.36, -21.56 85.84 3.55 50
8 11/20/2024 02:32:10 74.39, 146.15 94.21 11/20/2024 02:31:24 74.38, 146.14 94.19 1.29 46
9 11/20/2024 03:21:30 -74.42, -46.24 85.76 11/20/2024 03:20:51 -74.42, -46.14 85.76 3.24 39
10 11/20/2024 04:10:50 74.40, 121.47 94.23 11/20/2024 04:10:17 74.39, 121.43 94.22 1.56 33
11 11/20/2024 05:00:10 -74.42, -70.93 85.74 11/20/2024 04:59:44 -74.43, -70.84 85.74 2.65 26
12 11/20/2024 05:49:30 74.40, 96.79 94.25 11/20/2024 05:49:10 74.39, 96.73 94.24 1.99 20
13 11/20/2024 06:38:50 -74.43, -95.61 85.72 11/20/2024 06:38:37 -74.43, -95.54 85.72 2.08 13
14 11/20/2024 07:28:10 74.41, 72.11 94.27 11/20/2024 07:28:03 74.40, 72.03 94.26 2.48 7
15 11/20/2024 08:17:30 -74.44,-120.29 85.70 11/20/2024 08:17:30 -74.44,-120.24 85.69 1.52 0
16 11/20/2024 09:06:50 74.42, 47.43 94.30 11/20/2024 09:06:56 74.41, 47.33 94.29 3.01 6
17 11/20/2024 09:56:10 -74.45,-144.97 85.68 11/20/2024 09:56:23 -74.45,-144.94 85.67 1.01 13
18 11/20/2024 10:45:30 74.43, 22.74 94.32 11/20/2024 10:45:49 74.42, 22.63 94.31 3.56 19
19 11/20/2024 11:34:50 -74.45,-169.66 85.65 11/20/2024 11:35:16 -74.46,-169.65 85.64 0.65 26
20 11/20/2024 12:24:11 74.48, -2.07 94.39 11/20/2024 12:24:41 74.48, -1.95 94.39 3.45 30
21 11/20/2024 13:13:30 -74.46, 165.66 85.63 11/20/2024 13:14:09 -74.47, 165.65 85.62 0.69 39
22 11/20/2024 14:02:51 74.49, -26.75 94.41 11/20/2024 14:03:34 74.49, -26.65 94.41 2.89 43
23 11/20/2024 14:52:10 -74.47, 140.98 85.61 11/20/2024 14:53:02 -74.47, 140.95 85.60 1.08 52
24 11/20/2024 15:41:31 74.50, -51.43 94.43 11/20/2024 15:42:27 74.49, -51.36 94.44 2.34 56
25 11/20/2024 16:30:50 -74.48, 116.30 85.59 11/20/2024 16:31:55 -74.48, 116.25 85.57 1.58 65
26 11/20/2024 17:20:11 74.51, -76.12 94.45 11/20/2024 17:21:20 74.50, -76.06 94.46 1.80 69
27 11/20/2024 18:09:33 -74.69, 91.10 85.38 11/20/2024 18:10:44 -74.64, 91.92 85.39 24.58 71
28 11/20/2024 18:58:58 74.92,-101.84 94.85 11/20/2024 19:00:05 74.87, -99.87 94.87 57.51 67
29 11/20/2024 19:48:23 -75.19, 65.08 84.89 11/20/2024 19:49:27 -75.15, 68.52 84.81 97.96 64



Historial Predications of SNOs between AQUA and LANDSAT-8
